Вернуться в каталог

STARLINK-11345

АктивенСвязьVLEO
NORAD 62093·PAYLOAD·🇺🇸 United States

Запущен Nov 25, 2024 с Cape Canaveral Space Force Station

Loading…

Ближайшие Пролёты (ближайшие 24 часа)

TLE

СвежийSource: CelesTrak SupGP

Эпоха: Sep 15, 2026, 03:25 UTC

1 62093C 24220F   26258.14284722 -.00019516  00000+0 -15163-3 0  2583
2 62093  43.0002 341.1122 0001692 278.3525 283.2737 15.70840061    10

Отслеживайте STARLINK-11345 в реальном времени с AllMySat

Download on the App Store